| time (UTC) | temp F | wind direction | speed knots | gust knots | rain 1hr in | rain 24hr in | rain mn in | humidity % | barometer mb |
| 20260509152504 | 83 | 352 | 0.9 | 2.6 | 0.00 | 0.00 | 0.00 | 70 | 996.5 |
| 20260509152004 | 82 | 280 | 1.7 | 2.6 | 0.00 | 0.00 | 0.00 | 70 | 996.7 |
| 20260509151504 | 82 | 3 | 0.9 | 2.6 | 0.00 | 0.00 | 0.00 | 72 | 996.8 |
| 20260509151004 | 82 | 268 | 0.9 | 2.6 | 0.00 | 0.00 | 0.00 | 72 | 996.7 |
| 20260509150504 | 81 | 115 | 0.9 | 2.6 | 0.00 | 0.00 | 0.00 | 75 | 996.5 |
| 20260509150004 | 81 | 166 | 0.9 | 2.6 | 0.00 | 0.00 | 0.00 | 75 | 996.6 |
| 20260509145504 | 81 | 184 | 0.9 | 5.2 | 0.00 | 0.00 | 0.00 | 75 | 996.3 |
| 20260509145004 | 80 | 295 | 2.6 | 7.0 | 0.00 | 0.00 | 0.00 | 76 | 996.5 |
| 20260509144504 | 80 | 299 | 1.7 | 4.3 | 0.00 | 0.00 | 0.00 | 78 | 996.3 |
| 20260509143504 | 79 | 282 | 3.5 | 6.1 | 0.00 | 0.00 | 0.00 | 78 | 996.3 |
| 20260509143004 | 79 | 346 | 2.6 | 5.2 | 0.00 | 0.00 | 0.00 | 79 | 996.3 |
| 20260509142504 | 79 | 312 | 1.7 | 5.2 | 0.00 | 0.00 | 0.00 | 79 | 996.2 |
| 20260509142004 | 78 | 89 | 1.7 | 2.6 | 0.00 | 0.00 | 0.00 | 80 | 996.4 |
| 20260509141504 | 78 | 303 | 1.7 | 4.3 | 0.00 | 0.00 | 0.00 | 80 | 996.4 |
| 20260509141005 | 78 | 272 | 0.9 | 2.6 | 0.00 | 0.00 | 0.00 | 81 | 996.2 |
| 20260509140504 | 77 | 345 | 0.9 | 2.6 | 0.00 | 0.00 | 0.00 | 83 | 996.1 |
| 20260509140006 | 76 | 241 | 0.9 | 2.6 | 0.00 | 0.00 | 0.00 | 84 | 996.1 |
| 20260509135504 | 76 | 283 | 2.6 | 4.3 | 0.00 | 0.00 | 0.00 | 84 | 996.4 |
| 20260509134504 | 75 | 229 | 1.7 | 5.2 | 0.00 | 0.00 | 0.00 | 86 | 995.9 |
| 20260509134004 | 74 | 336 | 2.6 | 5.2 | 0.00 | 0.00 | 0.00 | 88 | 995.9 |
| 20260509133004 | 73 | 256 | 1.7 | 4.3 | 0.00 | 0.00 | 0.00 | 91 | 995.7 |
| 20260509132505 | 73 | 291 | 1.7 | 5.2 | 0.00 | 0.00 | 0.00 | 92 | 995.8 |
| 20260509132005 | 72 | 72 | 0.0 | 0.0 | 0.00 | 0.00 | 0.00 | 93 | 995.9 |
| 20260509131504 | 72 | 251 | 0.0 | 0.9 | 0.00 | 0.00 | 0.00 | 93 | 995.7 |
| 20260509131004 | 72 | 225 | 0.9 | 1.7 | 0.00 | 0.00 | 0.00 | 93 | 995.6 |
| 20260509130504 | 72 | 236 | 1.7 | 4.3 | 0.00 | 0.00 | 0.00 | 94 | 995.9 |
| 20260509125505 | 71 | 292 | 1.7 | 2.6 | 0.00 | 0.00 | 0.00 | 94 | 995.8 |
| 20260509125005 | 71 | 274 | 1.7 | 5.2 | 0.00 | 0.00 | 0.00 | 94 | 995.8 |
| 20260509124504 | 71 | 255 | 0.9 | 1.7 | 0.00 | 0.00 | 0.00 | 94 | 996.1 |
| 20260509124004 | 71 | 237 | 0.0 | 4.3 | 0.00 | 0.00 | 0.00 | 95 | 996.0 |
| 20260509123504 | 71 | 230 | 0.9 | 4.3 | 0.00 | 0.00 | 0.00 | 95 | 996.3 |
| 20260509123004 | 71 | 358 | 0.9 | 1.7 | 0.00 | 0.00 | 0.00 | 95 | 996.3 |
| 20260509122504 | 71 | 234 | 0.0 | 0.0 | 0.00 | 0.00 | 0.00 | 95 | 996.5 |
| 20260509122005 | 71 | 238 | 0.0 | 0.0 | 0.00 | 0.00 | 0.00 | 95 | 996.4 |
| 20260509121005 | 71 | 132 | 0.0 | 0.0 | 0.00 | 0.00 | 0.00 | 95 | 996.7 |
| 20260509120504 | 71 | 204 | 0.0 | 0.0 | 0.00 | 0.00 | 0.00 | 95 | 996.5 |
| 20260509115004 | 71 | 190 | 0.0 | 0.0 | 0.00 | 0.00 | 0.00 | 95 | 996.9 |
| 20260509114504 | 71 | 175 | 0.0 | 0.0 | 0.00 | 0.00 | 0.00 | 94 | 997.0 |
| 20260509114004 | 71 | 168 | 0.0 | 0.0 | 0.00 | 0.00 | 0.00 | 94 | 997.1 |
| 20260509113004 | 70 | 187 | 0.0 | 0.0 | 0.00 | 0.00 | 0.00 | 94 | 997.3 |
| 20260509112504 | 70 | 199 | 0.0 | 0.0 | 0.00 | 0.00 | 0.00 | 94 | 997.3 |
| 20260509111003 | 70 | 241 | 0.0 | 0.0 | 0.00 | 0.00 | 0.00 | 94 | 997.3 |
| 20260509110503 | 71 | 199 | 0.0 | 0.0 | 0.00 | 0.00 | 0.00 | 94 | 997.6 |
| 20260509110004 | 71 | 175 | 0.0 | 0.0 | 0.00 | 0.00 | 0.00 | 94 | 997.9 |
| 20260509105504 | 71 | 222 | 0.0 | 0.9 | 0.00 | 0.00 | 0.00 | 94 | 997.6 |
| 20260509105003 | 71 | 102 | 0.9 | 0.9 | 0.00 | 0.00 | 0.00 | 94 | 997.7 |
| 20260509104503 | 71 | 103 | 0.0 | 0.9 | 0.00 | 0.00 | 0.00 | 94 | 997.8 |
| 20260509103504 | 71 | 155 | 0.0 | 0.0 | 0.00 | 0.00 | 0.00 | 94 | 997.8 |
| 20260509103004 | 71 | 148 | 0.0 | 1.7 | 0.00 | 0.00 | 0.00 | 94 | 997.7 |
| 20260509102004 | 71 | 93 | 0.0 | 1.7 | 0.00 | 0.00 | 0.00 | 94 | 997.6 |
| 20260509101504 | 71 | 85 | 0.9 | 1.7 | 0.00 | 0.00 | 0.00 | 94 | 997.4 |
| 20260509101004 | 71 | 93 | 0.9 | 1.7 | 0.00 | 0.00 | 0.00 | 94 | 997.6 |
| 20260509100504 | 71 | 109 | 0.9 | 1.7 | 0.00 | 0.00 | 0.00 | 94 | 997.4 |
| 20260509100005 | 71 | 182 | 0.0 | 1.7 | 0.00 | 0.00 | 0.00 | 94 | 997.3 |
| 20260509094504 | 71 | 133 | 0.0 | 0.9 | 0.00 | 0.00 | 0.00 | 93 | 996.9 |
| 20260509093504 | 71 | 101 | 0.0 | 0.0 | 0.00 | 0.00 | 0.00 | 93 | 996.6 |
| 20260509093004 | 71 | 157 | 0.0 | 0.0 | 0.00 | 0.00 | 0.00 | 93 | 996.5 |
| 20260509092004 | 71 | 88 | 0.0 | 0.9 | 0.00 | 0.00 | 0.00 | 92 | 996.1 |
| 20260509091004 | 71 | 257 | 0.0 | 0.0 | 0.00 | 0.00 | 0.00 | 92 | 996.0 |
| 20260509090504 | 71 | 181 | 0.0 | 0.0 | 0.00 | 0.00 | 0.00 | 92 | 996.0 |
| 20260509085504 | 72 | 224 | 0.0 | 0.0 | 0.00 | 0.00 | 0.00 | 92 | 996.1 |
| 20260509085004 | 72 | 199 | 0.0 | 0.0 | 0.00 | 0.00 | 0.00 | 92 | 996.2 |
| 20260509084503 | 72 | 204 | 0.0 | 0.0 | 0.00 | 0.00 | 0.00 | 92 | 996.6 |
| 20260509084003 | 71 | 165 | 0.0 | 0.0 | 0.00 | 0.00 | 0.00 | 92 | 996.6 |
| 20260509083503 | 71 | 157 | 0.0 | 0.0 | 0.00 | 0.00 | 0.00 | 92 | 996.7 |
| 20260509082503 | 71 | 150 | 0.0 | 0.0 | 0.00 | 0.00 | 0.00 | 91 | 996.6 |
| 20260509081503 | 71 | 150 | 0.0 | 0.0 | 0.00 | 0.00 | 0.00 | 91 | 996.6 |
| 20260509081004 | 71 | 12 | 0.0 | 0.0 | 0.00 | 0.00 | 0.00 | 91 | 996.6 |
| 20260509080504 | 71 | 159 | 0.0 | 0.0 | 0.00 | 0.00 | 0.00 | 91 | 996.7 |
| 20260509080004 | 71 | 208 | 0.0 | 0.9 | 0.00 | 0.00 | 0.00 | 91 | 996.6 |
| 20260509075504 | 71 | 144 | 0.0 | 0.0 | 0.00 | 0.00 | 0.00 | 91 | 996.6 |
| 20260509075004 | 72 | 104 | 0.0 | 0.0 | 0.00 | 0.00 | 0.00 | 91 | 996.8 |
| 20260509074504 | 72 | 175 | 0.0 | 0.0 | 0.00 | 0.00 | 0.00 | 91 | 996.9 |
| 20260509074004 | 72 | 138 | 0.0 | 0.0 | 0.00 | 0.00 | 0.00 | 91 | 997.3 |
| 20260509073504 | 72 | 124 | 0.0 | 0.0 | 0.00 | 0.00 | 0.00 | 91 | 997.0 |
| 20260509073004 | 71 | 138 | 0.0 | 0.0 | 0.00 | 0.00 | 0.00 | 91 | 996.9 |
| 20260509072504 | 71 | 140 | 0.0 | 0.0 | 0.00 | 0.00 | 0.00 | 91 | 996.7 |
| 20260509072004 | 71 | 136 | 0.0 | 0.9 | 0.00 | 0.00 | 0.00 | 91 | 996.9 |
| 20260509071504 | 71 | 137 | 0.0 | 0.0 | 0.00 | 0.00 | 0.00 | 91 | 997.2 |
| 20260509071004 | 71 | 64 | 0.0 | 0.0 | 0.00 | 0.00 | 0.00 | 91 | 997.1 |
| 20260509070504 | 71 | 209 | 0.0 | 0.0 | 0.00 | 0.00 | 0.00 | 91 | 997.0 |
| 20260509070004 | 71 | 152 | 0.0 | 0.0 | 0.00 | 0.00 | 0.00 | 91 | 997.1 |
| 20260509065504 | 72 | 32 | 0.0 | 0.0 | 0.00 | 0.00 | 0.00 | 91 | 996.8 |
| 20260509065004 | 72 | 124 | 0.0 | 0.9 | 0.00 | 0.00 | 0.00 | 91 | 996.9 |
| 20260509064004 | 72 | 77 | 0.0 | 0.0 | 0.00 | 0.00 | 0.00 | 91 | 997.0 |
| 20260509063504 | 72 | 153 | 0.0 | 1.7 | 0.00 | 0.00 | 0.00 | 91 | 996.9 |
| 20260509063004 | 72 | 97 | 0.0 | 1.7 | 0.00 | 0.00 | 0.00 | 90 | 997.0 |
| 20260509062504 | 72 | 117 | 0.9 | 2.6 | 0.00 | 0.00 | 0.00 | 90 | 997.0 |
| 20260509061504 | 73 | 258 | 0.0 | 0.9 | 0.00 | 0.00 | 0.00 | 90 | 997.1 |
| 20260509061003 | 73 | 186 | 0.0 | 0.0 | 0.00 | 0.00 | 0.00 | 90 | 996.8 |
| 20260509060503 | 73 | 198 | 0.0 | 0.0 | 0.00 | 0.00 | 0.00 | 90 | 996.7 |
| 20260509060004 | 73 | 231 | 0.0 | 0.9 | 0.00 | 0.00 | 0.00 | 90 | 996.8 |
| 20260509055504 | 73 | 231 | 0.9 | 2.6 | 0.00 | 0.00 | 0.00 | 90 | 996.7 |
| 20260509055004 | 72 | 265 | 1.7 | 4.3 | 0.00 | 0.00 | 0.00 | 90 | 996.8 |
| 20260509054004 | 72 | 291 | 1.7 | 2.6 | 0.00 | 0.00 | 0.00 | 90 | 996.3 |
| 20260509052004 | 72 | 235 | 1.7 | 2.6 | 0.00 | 0.00 | 0.00 | 90 | 995.5 |
| 20260509051503 | 72 | 252 | 1.7 | 2.6 | 0.00 | 0.00 | 0.00 | 90 | 995.3 |
| 20260509051004 | 72 | 255 | 1.7 | 2.6 | 0.00 | 0.00 | 0.00 | 90 | 995.5 |
| 20260509050504 | 72 | 250 | 1.7 | 2.6 | 0.00 | 0.00 | 0.00 | 90 | 995.4 |
| 20260509050004 | 72 | 278 | 2.6 | 4.3 | 0.00 | 0.00 | 0.00 | 90 | 995.2 |
| 20260509045504 | 72 | 288 | 2.6 | 4.3 | 0.00 | 0.00 | 0.00 | 89 | 995.1 |
| 20260509045004 | 72 | 231 | 2.6 | 4.3 | 0.00 | 0.00 | 0.00 | 89 | 995.3 |
| 20260509044004 | 73 | 229 | 1.7 | 2.6 | 0.00 | 0.00 | 0.00 | 88 | 995.6 |
| 20260509043504 | 73 | 257 | 1.7 | 2.6 | 0.00 | 0.00 | 0.00 | 88 | 995.8 |
| 20260509043004 | 73 | 244 | 0.9 | 2.6 | 0.00 | 0.00 | 0.00 | 88 | 996.0 |
| 20260509042504 | 73 | 278 | 1.7 | 4.3 | 0.00 | 0.00 | 0.00 | 88 | 996.0 |
| 20260509042004 | 73 | 262 | 1.7 | 2.6 | 0.00 | 0.00 | 0.00 | 88 | 996.0 |
| 20260509041504 | 73 | 220 | 1.7 | 4.3 | 0.00 | 0.00 | 0.00 | 88 | 995.9 |
| 20260509040504 | 73 | 244 | 0.9 | 2.6 | 0.00 | 0.00 | 0.00 | 87 | 996.0 |
| 20260509040004 | 73 | 247 | 1.7 | 4.3 | 0.00 | 0.00 | 0.00 | 87 | 996.0 |
| 20260509035504 | 73 | 263 | 1.7 | 2.6 | 0.00 | 0.00 | 0.00 | 87 | 996.1 |
| 20260509034504 | 73 | 217 | 1.7 | 2.6 | 0.00 | 0.00 | 0.00 | 87 | 996.0 |
| 20260509033503 | 73 | 218 | 1.7 | 4.3 | 0.00 | 0.00 | 0.00 | 87 | 995.9 |
| 20260509033003 | 73 | 238 | 1.7 | 4.3 | 0.00 | 0.00 | 0.00 | 87 | 995.9 |
| 20260509032504 | 73 | 281 | 1.7 | 2.6 | 0.00 | 0.00 | 0.00 | 87 | 995.8 |
| 20260509032003 | 73 | 251 | 0.9 | 4.3 | 0.00 | 0.00 | 0.00 | 87 | 995.8 |
| 20260509031503 | 73 | 238 | 1.7 | 6.1 | 0.00 | 0.00 | 0.00 | 87 | 995.6 |
| 20260509031003 | 73 | 238 | 2.6 | 4.3 | 0.00 | 0.00 | 0.00 | 87 | 995.5 |
| 20260509030004 | 73 | 245 | 1.7 | 4.3 | 0.00 | 0.00 | 0.00 | 87 | 995.5 |
| 20260509025504 | 73 | 257 | 2.6 | 4.3 | 0.00 | 0.00 | 0.00 | 87 | 995.5 |
| 20260509025004 | 73 | 262 | 1.7 | 4.3 | 0.00 | 0.00 | 0.00 | 87 | 995.5 |
| 20260509024504 | 73 | 223 | 1.7 | 5.2 | 0.00 | 0.00 | 0.00 | 86 | 995.3 |
| 20260509024004 | 73 | 237 | 2.6 | 4.3 | 0.00 | 0.00 | 0.00 | 86 | 995.4 |
| 20260509023504 | 74 | 263 | 1.7 | 4.3 | 0.00 | 0.00 | 0.00 | 86 | 995.3 |
| 20260509023005 | 74 | 245 | 0.9 | 1.7 | 0.00 | 0.00 | 0.00 | 86 | 995.4 |
| 20260509022504 | 74 | 230 | 0.9 | 1.7 | 0.00 | 0.00 | 0.00 | 86 | 995.5 |
| 20260509021504 | 74 | 213 | 0.9 | 1.7 | 0.00 | 0.00 | 0.00 | 86 | 995.2 |
| 20260509021004 | 73 | 231 | 0.0 | 1.7 | 0.00 | 0.00 | 0.00 | 86 | 995.1 |
| 20260509020504 | 73 | 220 | 0.9 | 1.7 | 0.00 | 0.00 | 0.00 | 86 | 995.0 |
| 20260509020004 | 74 | 242 | 0.0 | 0.9 | 0.00 | 0.00 | 0.00 | 85 | 994.8 |
| 20260509015503 | 74 | 199 | 0.0 | 0.9 | 0.00 | 0.00 | 0.00 | 85 | 994.9 |
| 20260509015004 | 74 | 213 | 0.9 | 4.3 | 0.00 | 0.00 | 0.00 | 85 | 994.8 |
| 20260509014504 | 74 | 182 | 1.7 | 4.3 | 0.00 | 0.00 | 0.00 | 85 | 994.8 |
| 20260509014004 | 74 | 300 | 0.9 | 2.6 | 0.00 | 0.00 | 0.00 | 85 | 994.8 |
| 20260509013503 | 74 | 216 | 1.7 | 4.3 | 0.00 | 0.00 | 0.00 | 84 | 994.6 |
| 20260509013004 | 74 | 212 | 1.7 | 4.3 | 0.00 | 0.00 | 0.00 | 84 | 994.8 |
| 20260509011504 | 75 | 205 | 1.7 | 5.2 | 0.00 | 0.00 | 0.00 | 83 | 994.6 |
| 20260509011004 | 75 | 217 | 0.9 | 2.6 | 0.00 | 0.00 | 0.00 | 83 | 994.5 |
| 20260509010504 | 75 | 270 | 0.9 | 4.3 | 0.00 | 0.00 | 0.00 | 83 | 994.5 |
| 20260509005503 | 75 | 270 | 0.9 | 2.6 | 0.00 | 0.00 | 0.00 | 82 | 994.7 |
| 20260509005004 | 75 | 200 | 1.7 | 5.2 | 0.00 | 0.00 | 0.00 | 82 | 994.7 |
| 20260509004503 | 76 | 157 | 1.7 | 4.3 | 0.00 | 0.00 | 0.00 | 81 | 994.8 |
| 20260509004004 | 76 | 127 | 0.9 | 4.3 | 0.00 | 0.00 | 0.00 | 79 | 994.6 |
| 20260509003004 | 76 | 245 | 0.9 | 4.3 | 0.00 | 0.00 | 0.00 | 79 | 994.7 |
| 20260509002504 | 76 | 201 | 1.7 | 4.3 | 0.00 | 0.00 | 0.00 | 79 | 994.6 |
| 20260509002004 | 76 | 246 | 0.9 | 2.6 | 0.00 | 0.00 | 0.00 | 79 | 994.7 |
| 20260509001004 | 76 | 256 | 0.9 | 4.3 | 0.00 | 0.00 | 0.00 | 79 | 994.6 |
| 20260509000504 | 76 | 233 | 2.6 | 5.2 | 0.00 | 0.00 | 0.00 | 79 | 994.8 |
| 20260509000004 | 76 | 249 | 1.7 | 4.3 | 0.00 | 0.00 | 0.00 | 80 | 994.7 |
| 20260508235503 | 76 | 268 | 1.7 | 6.1 | 0.00 | 0.00 | 0.00 | 80 | 994.8 |
| 20260508235004 | 76 | 227 | 1.7 | 2.6 | 0.00 | 0.00 | 0.00 | 80 | 994.8 |
| 20260508234004 | 76 | 249 | 0.9 | 4.3 | 0.00 | 0.00 | 0.00 | 80 | 994.9 |
| 20260508233504 | 76 | 238 | 1.7 | 6.1 | 0.00 | 0.00 | 0.00 | 80 | 994.8 |
| 20260508233004 | 76 | 183 | 2.6 | 6.1 | 0.00 | 0.00 | 0.00 | 80 | 994.8 |
| 20260508232504 | 76 | 223 | 2.6 | 5.2 | 0.00 | 0.00 | 0.00 | 79 | 994.6 |
| 20260508232004 | 76 | 176 | 3.5 | 6.1 | 0.00 | 0.00 | 0.00 | 79 | 994.6 |
| 20260508231504 | 76 | 185 | 2.6 | 7.0 | 0.00 | 0.00 | 0.00 | 79 | 994.7 |
| 20260508231004 | 76 | 166 | 2.6 | 7.0 | 0.00 | 0.00 | 0.00 | 78 | 994.7 |
| 20260508230504 | 76 | 191 | 1.7 | 4.3 | 0.00 | 0.00 | 0.00 | 78 | 994.7 |
| 20260508225504 | 76 | 216 | 2.6 | 6.1 | 0.00 | 0.00 | 0.00 | 77 | 994.7 |
| 20260508225004 | 77 | 184 | 4.3 | 6.1 | 0.00 | 0.00 | 0.00 | 77 | 994.8 |
| 20260508224504 | 77 | 212 | 1.7 | 5.2 | 0.00 | 0.00 | 0.00 | 76 | 994.7 |
| 20260508223504 | 77 | 222 | 2.6 | 5.2 | 0.00 | 0.00 | 0.00 | 76 | 994.6 |
| 20260508222003 | 78 | 233 | 2.6 | 5.2 | 0.00 | 0.00 | 0.00 | 74 | 994.8 |
| 20260508221503 | 78 | 220 | 2.6 | 7.0 | 0.00 | 0.00 | 0.00 | 74 | 994.8 |
| 20260508221003 | 77 | 189 | 3.5 | 7.0 | 0.00 | 0.00 | 0.00 | 74 | 994.9 |
| 20260508220503 | 78 | 195 | 2.6 | 4.3 | 0.00 | 0.00 | 0.00 | 74 | 994.8 |
| 20260508220003 | 78 | 196 | 2.6 | 4.3 | 0.00 | 0.00 | 0.00 | 73 | 994.9 |
| 20260508215503 | 78 | 230 | 2.6 | 7.0 | 0.00 | 0.00 | 0.00 | 72 | 995.1 |
| 20260508214503 | 78 | 198 | 2.6 | 7.8 | 0.00 | 0.00 | 0.00 | 72 | 995.0 |
| 20260508214004 | 78 | 260 | 1.7 | 4.3 | 0.00 | 0.00 | 0.00 | 72 | 995.0 |
| 20260508213503 | 79 | 198 | 1.7 | 5.2 | 0.00 | 0.00 | 0.00 | 70 | 995.0 |
| 20260508212004 | 79 | 269 | 0.9 | 5.2 | 0.00 | 0.00 | 0.00 | 69 | 995.2 |
| 20260508211504 | 80 | 211 | 0.9 | 5.2 | 0.00 | 0.00 | 0.00 | 68 | 995.3 |
| 20260508211003 | 81 | 308 | 2.6 | 7.0 | 0.00 | 0.00 | 0.00 | 66 | 995.4 |
| 20260508210504 | 80 | 215 | 4.3 | 7.0 | 0.00 | 0.00 | 0.00 | 67 | 995.4 |
| 20260508210003 | 81 | 191 | 1.7 | 7.0 | 0.00 | 0.00 | 0.00 | 67 | 995.5 |
| 20260508205504 | 80 | 222 | 2.6 | 4.3 | 0.00 | 0.00 | 0.00 | 67 | 995.6 |
| 20260508205004 | 79 | 246 | 1.7 | 6.1 | 0.00 | 0.00 | 0.00 | 68 | 995.8 |
| 20260508204504 | 78 | 186 | 2.6 | 6.1 | 0.00 | 0.00 | 0.00 | 70 | 996.0 |
| 20260508204004 | 79 | 205 | 2.6 | 6.1 | 0.00 | 0.00 | 0.00 | 69 | 996.0 |
| 20260508203504 | 79 | 156 | 1.7 | 5.2 | 0.00 | 0.00 | 0.00 | 67 | 995.9 |
| 20260508203004 | 79 | 202 | 2.6 | 6.1 | 0.00 | 0.00 | 0.00 | 68 | 996.0 |
| 20260508202503 | 79 | 232 | 2.6 | 5.2 | 0.00 | 0.00 | 0.00 | 69 | 995.9 |
| 20260508202004 | 79 | 225 | 1.7 | 4.3 | 0.00 | 0.00 | 0.00 | 68 | 996.1 |
| 20260508201504 | 79 | 167 | 2.6 | 5.2 | 0.00 | 0.00 | 0.00 | 68 | 996.2 |
| 20260508201003 | 78 | 274 | 2.6 | 6.1 | 0.00 | 0.00 | 0.00 | 69 | 996.2 |
| 20260508200504 | 78 | 260 | 1.7 | 7.8 | 0.00 | 0.00 | 0.00 | 70 | 996.3 |
| 20260508200003 | 79 | 237 | 2.6 | 7.8 | 0.00 | 0.00 | 0.00 | 68 | 996.2 |
| 20260508195503 | 80 | 195 | 3.5 | 6.1 | 0.00 | 0.00 | 0.00 | 67 | 996.2 |
| 20260508195004 | 79 | 211 | 0.9 | 5.2 | 0.00 | 0.00 | 0.00 | 68 | 996.5 |
| 20260508194503 | 78 | 189 | 2.6 | 5.2 | 0.00 | 0.00 | 0.00 | 69 | 996.6 |
| 20260508193504 | 77 | 240 | 2.6 | 4.3 | 0.00 | 0.00 | 0.00 | 70 | 996.7 |
| 20260508193003 | 78 | 218 | 0.9 | 2.6 | 0.00 | 0.00 | 0.00 | 69 | 996.7 |
| 20260508192504 | 77 | 193 | 0.9 | 4.3 | 0.00 | 0.00 | 0.00 | 69 | 996.8 |
| 20260508192004 | 77 | 234 | 1.7 | 4.3 | 0.00 | 0.00 | 0.00 | 71 | 997.0 |
| 20260508191503 | 77 | 227 | 1.7 | 4.3 | 0.00 | 0.00 | 0.00 | 69 | 997.0 |
| 20260508190504 | 76 | 223 | 1.7 | 2.6 | 0.00 | 0.00 | 0.00 | 70 | 996.8 |
| 20260508190004 | 76 | 188 | 2.6 | 4.3 | 0.00 | 0.00 | 0.00 | 70 | 997.1 |
| 20260508185504 | 76 | 229 | 0.9 | 5.2 | 0.00 | 0.00 | 0.00 | 71 | 997.0 |
| 20260508185004 | 76 | 203 | 1.7 | 5.2 | 0.00 | 0.00 | 0.00 | 71 | 997.0 |
| 20260508184004 | 75 | 226 | 1.7 | 2.6 | 0.00 | 0.00 | 0.00 | 71 | 997.2 |
| 20260508183504 | 76 | 268 | 0.9 | 2.6 | 0.00 | 0.00 | 0.00 | 71 | 997.2 |
| 20260508183004 | 76 | 231 | 1.7 | 2.6 | 0.00 | 0.00 | 0.00 | 70 | 997.3 |
| 20260508182504 | 76 | 164 | 2.6 | 5.2 | 0.00 | 0.00 | 0.00 | 70 | 997.4 |
| 20260508181504 | 75 | 204 | 1.7 | 4.3 | 0.00 | 0.00 | 0.00 | 70 | 997.6 |
| 20260508181004 | 75 | 198 | 1.7 | 4.3 | 0.00 | 0.00 | 0.00 | 70 | 997.7 |
| 20260508180504 | 74 | 87 | 0.0 | 1.7 | 0.00 | 0.00 | 0.00 | 73 | 997.8 |
| 20260508180004 | 72 | 117 | 0.9 | 1.7 | 0.00 | 0.00 | 0.00 | 74 | 997.8 |
| 20260508175004 | 73 | 263 | 0.9 | 1.7 | 0.00 | 0.00 | 0.00 | 73 | 997.8 |
| 20260508174504 | 72 | 188 | 0.0 | 0.0 | 0.00 | 0.00 | 0.00 | 74 | 997.9 |
| 20260508174004 | 71 | 225 | 0.0 | 2.6 | 0.00 | 0.00 | 0.00 | 75 | 997.8 |
| 20260508173504 | 71 | 283 | 1.7 | 2.6 | 0.00 | 0.00 | 0.00 | 75 | 998.1 |
| 20260508173004 | 72 | 282 | 0.9 | 1.7 | 0.00 | 0.00 | 0.00 | 75 | 998.0 |
| 20260508172504 | 72 | 224 | 0.9 | 1.7 | 0.00 | 0.00 | 0.00 | 74 | 998.0 |
| 20260508172004 | 72 | 206 | 1.7 | 2.6 | 0.00 | 0.00 | 0.00 | 73 | 998.1 |
| 20260508171504 | 71 | 181 | 0.0 | 2.6 | 0.00 | 0.00 | 0.00 | 75 | 998.0 |
| 20260508171004 | 70 | 118 | 0.0 | 2.6 | 0.00 | 0.00 | 0.00 | 75 | 998.0 |
| 20260508170504 | 70 | 256 | 0.9 | 2.6 | 0.00 | 0.00 | 0.00 | 75 | 998.2 |
| 20260508165504 | 70 | 230 | 0.0 | 0.0 | 0.00 | 0.00 | 0.00 | 75 | 998.4 |
| 20260508165004 | 69 | 115 | 0.0 | 0.0 | 0.00 | 0.00 | 0.00 | 75 | 998.6 |
| 20260508164504 | 69 | 157 | 0.0 | 0.0 | 0.00 | 0.00 | 0.00 | 76 | 998.7 |
| 20260508164003 | 69 | 205 | 0.0 | 0.0 | 0.00 | 0.00 | 0.00 | 76 | 998.8 |
| 20260508162504 | 69 | 142 | 0.0 | 0.9 | 0.00 | 0.00 | 0.00 | 74 | 999.0 |
| 20260508162004 | 69 | 265 | 0.9 | 1.7 | 0.00 | 0.00 | 0.00 | 75 | 998.8 |
| 20260508161504 | 68 | 231 | 0.0 | 0.9 | 0.00 | 0.00 | 0.00 | 76 | 998.9 |
| 20260508161004 | 67 | 172 | 0.0 | 0.9 | 0.00 | 0.00 | 0.00 | 76 | 998.9 |
| 20260508155504 | 67 | 259 | 0.0 | 0.0 | 0.00 | 0.00 | 0.00 | 77 | 999.3 |
| 20260508155004 | 67 | 250 | 0.0 | 0.0 | 0.00 | 0.00 | 0.00 | 78 | 999.0 |
| 20260508154504 | 66 | 193 | 0.0 | 0.0 | 0.00 | 0.00 | 0.00 | 78 | 999.1 |
| 20260508154004 | 66 | 283 | 0.9 | 1.7 | 0.00 | 0.00 | 0.00 | 78 | 999.2 |
| 20260508153504 | 67 | 245 | 0.9 | 4.3 | 0.00 | 0.00 | 0.00 | 78 | 999.4 |
| 20260508153004 | 67 | 300 | 0.9 | 4.3 | 0.00 | 0.00 | 0.00 | 76 | 999.4 |